TimeEDT,TemperatureF,Dew PointF,Humidity,Sea Level PressureIn,VisibilityMPH,Wind Direction,Wind SpeedMPH,Gust SpeedMPH,PrecipitationIn,Events,Conditions,WindDirDegrees,DateUTC
12:16 AM,39.2,28.4,65,29.74,10.0,West,3.5,-,N/A,,Overcast,270,2012-11-02 04:16:00
12:36 AM,39.2,30.2,70,29.74,10.0,WNW,6.9,-,N/A,,Overcast,290,2012-11-02 04:36:00
12:56 AM,39.2,32.0,75,29.74,10.0,NW,11.5,18.4,N/A,,Drizzle,320,2012-11-02 04:56:00
1:16 AM,39.2,32.0,75,29.74,10.0,WNW,6.9,-,N/A,,Overcast,300,2012-11-02 05:16:00
1:36 AM,39.2,32.0,75,29.75,10.0,NW,15.0,20.7,N/A,,Overcast,310,2012-11-02 05:36:00
1:56 AM,39.2,32.0,75,29.74,10.0,NW,4.6,-,N/A,,Overcast,320,2012-11-02 05:56:00
2:16 AM,39.2,32.0,75,29.74,10.0,NW,5.8,-,N/A,,Overcast,310,2012-11-02 06:16:00
2:36 AM,39.2,30.2,70,29.75,10.0,NW,9.2,18.4,N/A,,Overcast,310,2012-11-02 06:36:00
2:56 AM,39.2,30.2,70,29.75,10.0,NW,9.2,-,N/A,,Overcast,310,2012-11-02 06:56:00
3:16 AM,39.2,30.2,70,29.75,10.0,WNW,8.1,-,N/A,,Overcast,290,2012-11-02 07:16:00
3:36 AM,39.2,32.0,75,29.76,10.0,WNW,10.4,18.4,N/A,,Overcast,290,2012-11-02 07:36:00
3:56 AM,37.4,32.0,81,29.76,10.0,WNW,12.7,17.3,N/A,,Overcast,300,2012-11-02 07:56:00
4:16 AM,37.4,30.2,75,29.76,10.0,WNW,11.5,17.3,N/A,,Overcast,290,2012-11-02 08:16:00
4:36 AM,37.4,30.2,75,29.76,10.0,WNW,8.1,-,N/A,,Overcast,300,2012-11-02 08:36:00
4:56 AM,37.4,30.2,75,29.77,10.0,WNW,9.2,17.3,N/A,,Overcast,300,2012-11-02 08:56:00
5:16 AM,37.4,30.2,75,29.77,10.0,NW,9.2,-,N/A,,Overcast,310,2012-11-02 09:16:00
5:36 AM,37.4,30.2,75,29.77,10.0,NW,9.2,16.1,N/A,,Overcast,320,2012-11-02 09:36:00
5:56 AM,37.4,30.2,75,29.78,10.0,NNW,10.4,20.7,N/A,,Drizzle,330,2012-11-02 09:56:00
6:16 AM,35.6,30.2,81,29.79,10.0,NW,9.2,-,N/A,,Overcast,320,2012-11-02 10:16:00
6:36 AM,35.6,30.2,81,29.79,10.0,NW,8.1,-,N/A,,Overcast,320,2012-11-02 10:36:00
6:56 AM,35.6,28.4,75,29.80,10.0,NW,10.4,16.1,N/A,,Overcast,310,2012-11-02 10:56:00
7:16 AM,35.6,30.2,81,29.81,10.0,NNW,8.1,-,N/A,,Overcast,330,2012-11-02 11:16:00
7:36 AM,35.6,28.4,75,29.82,10.0,NW,12.7,16.1,N/A,,Overcast,310,2012-11-02 11:36:00
7:56 AM,35.6,28.4,75,29.82,10.0,WNW,9.2,16.1,N/A,,Overcast,300,2012-11-02 11:56:00
8:16 AM,35.6,28.4,75,29.82,10.0,NW,10.4,-,N/A,,Overcast,310,2012-11-02 12:16:00
8:36 AM,35.6,26.6,70,29.83,10.0,NW,11.5,24.2,N/A,,Overcast,320,2012-11-02 12:36:00
8:56 AM,35.6,26.6,70,29.84,10.0,NNW,11.5,-,N/A,,Overcast,330,2012-11-02 12:56:00
9:16 AM,35.6,26.6,70,29.86,10.0,NW,11.5,21.9,N/A,,Overcast,310,2012-11-02 13:16:00
9:36 AM,35.6,26.6,70,29.86,10.0,NW,10.4,19.6,N/A,,Overcast,310,2012-11-02 13:36:00
9:56 AM,37.4,26.6,65,29.86,10.0,NW,15.0,23.0,N/A,,Overcast,320,2012-11-02 13:56:00
10:16 AM,37.4,26.6,65,29.87,10.0,NW,16.1,23.0,N/A,,Overcast,320,2012-11-02 14:16:00
10:36 AM,37.4,26.6,65,29.87,10.0,NW,13.8,24.2,N/A,,Mostly Cloudy,320,2012-11-02 14:36:00
10:56 AM,37.4,26.6,65,29.88,10.0,NW,18.4,25.3,N/A,,Mostly Cloudy,310,2012-11-02 14:56:00
11:16 AM,37.4,26.6,65,29.89,10.0,NW,10.4,21.9,N/A,,Scattered Clouds,320,2012-11-02 15:16:00
11:36 AM,39.2,26.6,61,29.89,10.0,NW,15.0,19.6,N/A,,Scattered Clouds,310,2012-11-02 15:36:00
11:56 AM,39.2,26.6,61,29.90,10.0,NW,10.4,24.2,N/A,,Scattered Clouds,320,2012-11-02 15:56:00
12:16 PM,41.0,26.6,57,29.90,10.0,NW,17.3,25.3,N/A,,Mostly Cloudy,320,2012-11-02 16:16:00
12:36 PM,41.0,26.6,57,29.91,10.0,NW,18.4,25.3,N/A,,Overcast,310,2012-11-02 16:36:00
12:56 PM,41.0,26.6,57,29.91,10.0,NNW,10.4,26.5,N/A,,Mostly Cloudy,330,2012-11-02 16:56:00
1:16 PM,39.2,26.6,61,29.91,10.0,NW,16.1,24.2,N/A,,Mostly Cloudy,320,2012-11-02 17:16:00
1:36 PM,41.0,26.6,57,29.92,10.0,WNW,15.0,23.0,N/A,,Overcast,300,2012-11-02 17:36:00
1:56 PM,41.0,26.6,57,29.92,10.0,NW,11.5,25.3,N/A,,Overcast,320,2012-11-02 17:56:00
2:16 PM,41.0,26.6,57,29.92,10.0,NW,11.5,19.6,N/A,,Mostly Cloudy,320,2012-11-02 18:16:00
2:36 PM,39.2,26.6,61,29.93,10.0,NW,18.4,24.2,N/A,,Overcast,310,2012-11-02 18:36:00
2:56 PM,39.2,26.6,61,29.93,10.0,NW,13.8,25.3,N/A,,Overcast,320,2012-11-02 18:56:00
3:16 PM,39.2,24.8,56,29.94,10.0,NW,15.0,23.0,N/A,,Overcast,310,2012-11-02 19:16:00
3:36 PM,41.0,26.6,57,29.94,10.0,NW,11.5,21.9,N/A,,Overcast,320,2012-11-02 19:36:00
3:56 PM,39.2,26.6,61,29.95,10.0,NW,11.5,20.7,N/A,,Overcast,310,2012-11-02 19:56:00
4:16 PM,39.2,26.6,61,29.96,10.0,NW,12.7,18.4,N/A,,Overcast,320,2012-11-02 20:16:00
4:36 PM,39.2,26.6,61,29.97,10.0,NW,9.2,16.1,N/A,,Overcast,320,2012-11-02 20:36:00
4:56 PM,39.2,26.6,61,29.97,10.0,NW,9.2,18.4,N/A,,Overcast,320,2012-11-02 20:56:00
5:16 PM,37.4,28.4,70,29.97,10.0,WNW,11.5,19.6,N/A,,Overcast,300,2012-11-02 21:16:00
5:36 PM,37.4,28.4,70,29.98,10.0,NNW,6.9,18.4,N/A,,Overcast,330,2012-11-02 21:36:00
5:56 PM,37.4,28.4,70,29.98,10.0,NNW,10.4,16.1,N/A,,Overcast,330,2012-11-02 21:56:00
6:16 PM,37.4,28.4,70,29.99,10.0,NW,8.1,-,N/A,,Overcast,310,2012-11-02 22:16:00
6:36 PM,37.4,28.4,70,29.99,10.0,WNW,4.6,-,N/A,,Overcast,300,2012-11-02 22:36:00
6:56 PM,37.4,28.4,70,30.00,10.0,NW,8.1,-,N/A,,Overcast,310,2012-11-02 22:56:00
7:16 PM,37.4,28.4,70,30.00,10.0,NW,5.8,-,N/A,,Overcast,320,2012-11-02 23:16:00
7:36 PM,37.4,28.4,70,30.01,10.0,NW,3.5,-,N/A,,Overcast,310,2012-11-02 23:36:00
7:56 PM,37.4,28.4,70,30.01,10.0,NW,4.6,-,N/A,,Overcast,310,2012-11-02 23:56:00
8:16 PM,37.4,28.4,70,30.02,10.0,NW,5.8,-,N/A,,Overcast,310,2012-11-03 00:16:00
8:36 PM,37.4,28.4,70,30.02,10.0,NW,4.6,-,N/A,,Overcast,310,2012-11-03 00:36:00
8:56 PM,37.4,28.4,70,30.02,10.0,NW,5.8,-,N/A,,Overcast,320,2012-11-03 00:56:00
9:16 PM,37.4,28.4,70,30.02,10.0,NW,4.6,-,N/A,,Overcast,320,2012-11-03 01:16:00
9:36 PM,37.4,28.4,70,30.02,10.0,NW,4.6,-,N/A,,Overcast,310,2012-11-03 01:36:00
9:56 PM,35.6,28.4,75,30.02,10.0,WNW,6.9,-,N/A,,Mostly Cloudy,300,2012-11-03 01:56:00
10:16 PM,35.6,28.4,75,30.02,10.0,WNW,9.2,-,N/A,,Overcast,290,2012-11-03 02:16:00
10:36 PM,37.4,28.4,70,30.03,10.0,WNW,9.2,-,N/A,,Overcast,300,2012-11-03 02:36:00
10:56 PM,35.6,28.4,75,30.03,10.0,WNW,6.9,-,N/A,,Overcast,300,2012-11-03 02:56:00
11:16 PM,37.4,28.4,70,30.03,10.0,WNW,8.1,-,N/A,,Overcast,300,2012-11-03 03:16:00
11:36 PM,35.6,28.4,75,30.04,10.0,WNW,8.1,-,N/A,,Overcast,290,2012-11-03 03:36:00
11:56 PM,35.6,28.4,75,30.04,10.0,NW,10.4,16.1,N/A,,Overcast,310,2012-11-03 03:56:00